User: anonymous   Login
Location: El Águila
(10.4167°N, 66.7167°W)
Time: 22:19:39
(UTC+00:00)
Language:

SWIFT - Orbit

View from above orbital plane
View from above orbital plane
View from above satellite
View from above satellite

Ground track
Ground track

The orbit data is extracted from the following two-line orbital elements,

1 28485U 04047A   24107.73723442  .00024406  00000-0  11621-2 0  9997
2 28485  20.5555 260.5973 0008147 199.2934 160.7194 15.17228894 64971
Epoch (UTC): 16 April 2024 17:41:37
Eccentricity: 0.0008147
inclination: 20.5555°
perigee height: 508 km
apogee height: 520 km
right ascension of ascending node: 260.5973°
argument of perigee: 199.2934°
revolutions per day: 15.17228894
mean anomaly at epoch: 160.7194°
orbit number at epoch: 6497

The dashed part of the orbit path shows where the satellite is in the earth's shadow,  

DLR